Вернуться в каталог

COSMOS 1970

GLONASS

АктивенНавигацияMEO
NORAD 19501·PAYLOAD·🇷🇺 Russia

Запущен Sep 16, 1988 с Baikonur Cosmodrome

Loading…

Ближайшие Пролёты (ближайшие 24 часа)

TLE

УстаревающийSource: Space-Track

Эпоха: Aug 30, 2026, 10:37 UTC

1 19501U 88085A   26242.44259675 -.00000023  00000-0  00000+0 0  9998
2 19501  65.1944 311.9466 0008507  37.6974 322.3540  2.13102175295358

Отслеживайте COSMOS 1970 в реальном времени с AllMySat

Download on the App Store